This is the latest recevied weather packets stored in our database for station/object LU2DKV-10. If no packets are shown the sender has not sent any weather packets the latest 10 day(s).
| Time | Temp. | Humidity | Pressure | Rain* | Wind** | Luminosity | Snow |
|---|---|---|---|---|---|---|---|
| 1788280771 | 18.33° C | 66% | 1019 hPa | - | - | 0 W/m² | - |
| 1788278947 | 17.78° C | 71% | 1020 hPa | - | - | 0 W/m² | - |
| 1788277123 | 17.22° C | 72% | 1020 hPa | - | - | 0 W/m² | - |
| 1788275299 | 16.67° C | 74% | 1021 hPa | - | - | 0 W/m² | - |
| 1788273479 | 16.11° C | 76% | 1021 hPa | - | - | 0 W/m² | - |
| 1788271655 | 16.11° C | 80% | 1020 hPa | - | - | 0 W/m² | - |
| 1788269827 | 15.56° C | 82% | 1020 hPa | - | - | 0 W/m² | - |
| 1788268004 | 15° C | 85% | 1020 hPa | - | - | 0 W/m² | - |
| 1788266179 | 15° C | 87% | 1020 hPa | - | - | 0 W/m² | - |
| 1788264353 | 15° C | 89% | 1020 hPa | - | - | 0 W/m² | - |
| 1788262530 | 13.89° C | 95% | 1019 hPa | - | - | 0 W/m² | - |
| 1788260707 | 13.33° C | 97% | 1019 hPa | - | - | 0 W/m² | - |
| 1788258882 | 12.78° C | 99% | 1019 hPa | - | - | 0 W/m² | - |
| 1788257052 | 12.78° C | 99% | 1019 hPa | - | - | 0 W/m² | - |
| 1788255231 | 12.78° C | 99% | 1019 hPa | - | - | 0 W/m² | - |
| 1788253409 | 12.78° C | 98% | 1019 hPa | - | - | 0 W/m² | - |
| 1788251583 | 12.78° C | 97% | 1018 hPa | - | - | 0 W/m² | - |
| 1788249763 | 12.78° C | 96% | 1018 hPa | - | - | 0 W/m² | - |
| 1788247939 | 12.22° C | 98% | 1018 hPa | - | - | 0 W/m² | - |
| 1788246117 | 12.22° C | 98% | 1018 hPa | - | - | 0 W/m² | - |
| 1788245524 | 12.78° C | 97% | 1018 hPa | - | - | 0 W/m² | - |
| 1788243701 | 12.78° C | 95% | 1018 hPa | - | - | 0 W/m² | - |
| 1788241879 | 12.78° C | 95% | 1018 hPa | - | - | 0 W/m² | - |
| 1788240055 | 13.33° C | 97% | 1018 hPa | - | - | 0 W/m² | - |
| 1788238232 | 13.33° C | 97% | 1018 hPa | - | - | 0 W/m² | - |
* Rain since midnight (hover to see other rain measurements)
** Current wind speed in m/s (hover to see current wind gust speed)